Showing default

CHECKMATE 8, 56162

Orbit data source: Space-Track

CHECKMATE 8, 56162 is a payload satellite owned by SDA (US) in LEO that was launched on Sun, 02 Apr 2023 UTC via an FALCON 9 launch vehicle from the Air Force Western Test Range (AFWTR). Payload-class satellites include a variety of spacecraft equipped with specific instruments for various scientific and technological missions. These include communications satellites like Starlink; space stations such as the ISS; scientific satellites like the Hubble; Earth observation satellites from companies like Planet Labs, Umbra, and HawkEye 360; GPS; miniature CubeSats for education and research; and military/defense satellites.

Loading next visibility...
Identifier
56162, 2023-050A
Orbit
LEO
Country
Flag of USUS
Related business
Manufacturer
York Space Sys
Mission
Operational Defense Communications
Bus & Motor
S-CLASS, Unknown motor
Mass
~300 kg wet, ~300 kg dry
Launch date (UTC)
2023-04-02 (3 years ago)
Launch vehicle
FALCON 9
Launch site
Air Force Western Test Range (AFWTR)
Object type
Payload
Rocket body
Debris
Shape & HBR
Box + 1 Pan, 1.0 m
Radar Cross Section
0.945 m², Large (>1 m²)

Expand to show TLE details & history
Last TLE update: 2 days ago

TLE from 2 days ago
0 CHECKMATE 8
1 56162U 23050A   26171.40732083  .00000074  00000-0  56150-4 0  9996
2 56162  81.0023  68.6832 0006012 321.8665  38.2064 13.84959159162599
Epoch: 2026-06-20T09:46Z
TLE epoch observation values (Epoch: 2026-06-20T09:46:32.519Z)
Latitude
-0.00014°
Longitude
13.4253°
Altitude
945.747 km
Speed
7.381 km/s
True Right ascension
04h 34m 43s
True Declination
0° 00' 00"
Sunlit
Object was in daylight at epoch
Visualization orbit readout
Latitude
Unknown
Longitude
Unknown
Altitude
Unknown
Speed
Unknown
Apparent Right ascension
Unknown
Apparent Declination
Unknown
Sunlit
N/A
Visualization observer readout
Local Sidereal Time
02:17:38
Azimuth
Unknown
Elevation
Unknown
Doppler factor
Unknown
Orbital elements
Apogee altitude
947.971 km
Perigee altitude
939.167 km
Semi-major axis
7,321.706 km
Eccentricity
0.0006
Inclination
81.0023°
RAAN
68.6832°
Arg. of periapsis
321.8665°
True anomaly
38.24903°
Mean anomaly
38.2064°
Eccentric anomaly
38.22771°
Mean motion
3.46437 °/min
Orbital period
103.91 mins
BSTAR
0.00005615
Loading maneuver chart data...
Computing Atmospheric mass density...
Loading historical data...
Loading historical data...
Loading historical data...
Loading historical data...
Loading historical data...
Loading historical data...
Loading historical data...

Documentation

Showing up to 5 results
|